Vorticity
-0 8 8 12 14 16 17 17 16 17 19 21 16 19 18 8 12 12 9 11 18 14 17 -2 -6 13 8 9 10 12 9 8 5 4 5 4 4 5 6 4 5 6 4
10 13 14 5 16 7 9 8 15 20 27 22 18 21 19 22 13 19 12 11 13 17 18 11 10 -5 8 10 9 5 1 5 4 1 3 6 6 6 4 4 5 5 5
13 7 3 6 7 10 11 10 5 19 17 19 25 29 30 22 13 20 17 9 15 15 17 15 14 9 9 15 6 2 4 5 2 4 4 9 6 8 1 1 0 4 7
5 3 5 7 10 15 11 11 19 11 10 21 20 29 30 34 16 19 15 11 12 12 19 17 16 1 10 7 7 5 7 4 6 4 4 6 6 6 12 -1 2 7 11
5 4 5 8 5 5 12 6 17 11 9 17 13 22 26 29 19 13 14 13 15 13 11 17 5 16 -9 1 26 -3 -4 1 7 8 6 2 1 -0 4 8 8 9 19
6 6 6 8 6 -0 4 13 10 17 9 12 15 19 19 54 14 12 11 18 12 14 10 16 11 5 18 2 37 -8 -4 -4 7 5 4 1 0 1 3 6 10 12 8
6 6 6 7 8 7 4 9 14 8 19 7 6 16 13 12 38 45 27 7 17 15 14 16 17 6 6 47 34 18 34 5 8 5 -6 4 -3 7 5 15 10 9 16
7 7 7 7 8 8 5 7 10 10 25 16 9 10 31 12 11 16 7 16 15 17 9 -9 17 -31 -24 18 8 10 13 3 2 2 -0 -3 4 11 10 13 10 15 8
6 6 7 7 8 8 7 4 8 12 12 24 15 13 13 11 13 16 12 13 14 14 12 -10 25 -18 34 1 3 23 10 12 29 10 10 13 10 15 16 8 21 2 19
8 9 7 7 6 7 8 7 4 6 13 15 17 17 12 16 11 13 10 14 15 9 11 8 2 32 29 6 5 2 -1 6 9 12 9 13 10 15 24 -6 3 -19 4
8 8 8 7 7 6 7 9 7 5 6 16 21 14 15 16 17 11 8 12 11 8 9 11 -7 -2 2 2 2 3 6 9 10 10 10 17 13 6 13 15 5 8 9
10 6 8 8 7 7 7 8 10 7 7 5 14 19 11 12 10 12 10 9 11 11 6 7 8 4 2 4 7 15 13 18 16 3 -9 9 41 18 -18 9 2 7 5
8 7 7 8 8 7 7 7 9 11 9 7 7 7 8 11 18 13 12 9 6 6 8 10 10 16 17 15 11 12 8 3 5 8 7 10 10 16 9 5 11 14 13
7 8 12 8 7 7 6 7 8 8 9 9 7 7 7 6 7 6 6 7 9 10 10 12 10 9 8 7 7 9 11 12 12 11 13 13 16 16 13 16 16 17 17
9 14 8 13 8 7 7 6 6 7 8 8 10 9 7 6 7 8 9 9 9 10 11 11 11 12 12 12 11 11 10 11 11 11 11 12 12 13 12 9 7 6 5
10 8 11 12 13 7 7 7 6 6 7 8 8 9 9 9 8 8 7 8 9 9 9 9 9 10 10 10 11 11 12 12 11 11 11 8 6 5 5 5 7 8 9
-0 6 11 2 10 10 7 8 7 6 6 7 7 8 9 9 9 10 9 9 9 9 8 8 8 8 9 9 9 9 9 10 10 8 5 5 4 4 4 4 4 4 7
7 7 18 15 24 5 10 7 7 6 6 6 6 7 7 7 8 8 8 9 9 9 9 9 9 9 9 9 8 8 9 9 6 4 4 5 6 6 6 7 9 11 12
6 10 14 10 36 18 8 8 8 7 6 5 6 7 7 7 7 7 7 8 8 8 9 9 9 8 6 6 7 7 7 7 7 6 5 6 8 11 12 12 12 13 13
9 11 14 17 5 15 14 9 10 8 9 5 6 6 7 7 8 8 7 6 7 7 8 8 8 8 9 10 10 10 8 7 6 8 10 12 13 14 15 13 13 13 13
12 13 10 8 15 16 12 14 13 15 8 7 8 7 6 7 6 6 8 8 7 7 8 8 9 10 10 9 7 6 6 5 9 13 16 17 15 15 13 14 15 13 11
12 5 8 6 11 5 12 14 15 14 9 11 8 8 7 6 8 8 9 9 9 9 9 9 9 10 8 6 6 5 4 9 13 15 16 14 10 10 11 15 15 16 17
4 7 5 8 8 12 8 -6 9 9 8 11 10 8 7 7 7 9 8 9 10 10 9 9 10 9 6 6 5 3 8 13 14 15 9 8 9 13 11 13 14 13 12
10 8 6 9 5 12 14 15 11 7 8 11 11 10 9 8 8 8 8 9 10 9 9 10 11 6 6 4 5 5 13 14 15 9 8 10 12 11 12 13 14 15 16
5 12 12 10 13 16 9 8 12 10 10 12 11 11 10 9 8 9 9 9 10 10 10 11 9 7 7 4 5 12 14 13 11 8 12 13 12 12 13 14 15 15 15
3 10 14 10 9 14 9 8 9 10 14 10 11 13 12 9 9 10 8 9 10 10 10 10 7 8 4 7 10 14 14 12 8 13 14 11 11 12 13 13 14 15 14
Height
3096 3093 3089 3085 3081 3075 3070 3064 3059 3054 3048 3045 3041 3039 3040 3043 3045 3047 3050 3053 3056 3059 3063 3069 3074 3079 3082 3086 3088 3089 3091 3095 3096 3096 3098 3098 3099 3101 3103 3102 3102 3102 3102
3092 3089 3086 3083 3077 3072 3066 3059 3052 3045 3040 3033 3029 3025 3026 3029 3032 3036 3039 3042 3045 3049 3053 3058 3064 3072 3074 3078 3080 3082 3085 3087 3089 3089 3090 3090 3094 3094 3095 3094 3094 3094 3094
3090 3088 3085 3079 3072 3066 3059 3053 3045 3039 3033 3026 3020 3016 3013 3016 3021 3025 3029 3032 3036 3040 3044 3049 3056 3063 3067 3070 3072 3074 3077 3080 3082 3083 3082 3081 3083 3084 3085 3086 3086 3086 3086
3088 3084 3080 3075 3069 3062 3054 3047 3040 3034 3028 3020 3014 3009 3005 3005 3011 3015 3020 3024 3028 3033 3037 3043 3048 3054 3059 3062 3064 3066 3070 3073 3075 3076 3076 3075 3074 3073 3069 3074 3075 3076 3075
3085 3082 3078 3072 3067 3060 3053 3045 3038 3031 3023 3017 3011 3005 3000 3000 3004 3009 3014 3018 3023 3027 3031 3037 3042 3048 3053 3054 3058 3061 3063 3065 3069 3070 3071 3070 3069 3068 3064 3058 3061 3062 3063
3083 3080 3075 3071 3065 3059 3051 3044 3037 3029 3022 3016 3011 3005 3000 2998 2999 3003 3008 3013 3018 3023 3027 3032 3037 3043 3047 3048 3050 3049 3053 3054 3062 3064 3064 3062 3061 3060 3058 3054 3050 3051 3053
3080 3077 3073 3069 3063 3058 3050 3043 3036 3028 3021 3015 3011 3006 3002 3000 2998 3000 3006 3011 3014 3019 3023 3027 3033 3037 3040 3043 3041 3044 3046 3049 3055 3057 3057 3056 3054 3052 3049 3046 3042 3041 3042
3078 3075 3071 3067 3062 3056 3050 3043 3036 3028 3022 3016 3012 3009 3005 3003 3003 3003 3006 3010 3013 3017 3021 3025 3029 3033 3036 3037 3041 3037 3041 3048 3049 3050 3049 3048 3046 3043 3041 3039 3036 3032 3033
3076 3073 3069 3065 3060 3055 3049 3043 3036 3029 3022 3017 3013 3010 3007 3006 3005 3006 3008 3010 3012 3016 3019 3026 3027 3031 3033 3034 3037 3037 3040 3039 3039 3039 3040 3039 3035 3033 3033 3032 3030 3026 3023
3074 3071 3067 3063 3058 3053 3048 3042 3036 3030 3025 3020 3016 3012 3010 3008 3007 3007 3008 3010 3012 3015 3019 3022 3024 3027 3027 3028 3030 3031 3031 3031 3031 3030 3030 3028 3025 3024 3024 3024 3023 3021 3016
3071 3068 3064 3060 3056 3051 3047 3042 3037 3032 3027 3022 3017 3014 3011 3010 3009 3009 3009 3011 3013 3015 3016 3019 3022 3024 3024 3023 3023 3023 3024 3023 3022 3021 3020 3019 3016 3016 3015 3015 3014 3011 3009
3067 3064 3061 3057 3054 3050 3046 3042 3037 3033 3029 3025 3021 3016 3014 3012 3011 3011 3012 3013 3014 3016 3017 3016 3016 3016 3016 3017 3017 3016 3014 3014 3012 3013 3012 3010 3005 3006 3006 3006 3004 3003 3000
3063 3060 3058 3054 3051 3048 3045 3041 3038 3034 3031 3027 3023 3020 3017 3014 3012 3011 3011 3011 3011 3012 3012 3012 3012 3010 3009 3008 3008 3008 3008 3008 3007 3006 3004 3002 2998 2998 2997 2996 2994 2992 2989
3060 3057 3053 3050 3047 3044 3041 3039 3036 3033 3030 3026 3024 3021 3018 3015 3014 3012 3010 3009 3009 3009 3009 3008 3007 3006 3005 3004 3003 3003 3003 3002 3000 2997 2996 2994 2993 2991 2990 2988 2985 2982 2979
3055 3051 3048 3045 3043 3040 3038 3035 3033 3031 3028 3025 3022 3020 3017 3015 3013 3012 3010 3008 3007 3006 3005 3004 3003 3002 3001 3000 3000 2998 2997 2996 2994 2992 2991 2989 2987 2985 2983 2980 2976 2972 2968
3051 3048 3045 3041 3038 3035 3033 3031 3029 3027 3025 3022 3020 3017 3015 3013 3011 3009 3008 3006 3005 3003 3002 3001 3000 2999 2998 2997 2995 2994 2993 2991 2989 2987 2983 2980 2977 2974 2971 2968 2965 2963 2959
3046 3043 3039 3036 3033 3030 3028 3026 3024 3023 3021 3019 3017 3015 3013 3011 3009 3007 3005 3003 3001 3000 2998 2997 2995 2994 2993 2992 2990 2988 2986 2985 2983 2981 2979 2975 2971 2967 2963 2959 2955 2952 2948
3040 3037 3033 3029 3026 3024 3022 3020 3019 3018 3017 3015 3013 3011 3009 3008 3006 3004 3002 3000 2998 2997 2995 2994 2992 2990 2989 2988 2986 2984 2982 2980 2977 2974 2970 2967 2963 2958 2952 2947 2944 2941 2937
3034 3029 3025 3022 3018 3017 3016 3015 3014 3013 3011 3009 3008 3007 3005 3003 3000 2998 2997 2996 2995 2993 2991 2990 2988 2986 2984 2982 2980 2978 2975 2973 2970 2967 2962 2957 2952 2947 2941 2935 2930 2927 2924
3026 3022 3019 3017 3014 3011 3009 3008 3007 3006 3005 3003 3003 3002 3000 2999 2997 2995 2993 2990 2989 2987 2986 2984 2982 2980 2977 2975 2973 2971 2969 2967 2964 2959 2952 2946 2940 2935 2931 2925 2919 2913 2909
3018 3015 3013 3011 3008 3005 3003 3001 3000 3000 2997 2996 2996 2995 2994 2992 2990 2988 2987 2985 2983 2981 2979 2977 2976 2974 2972 2969 2966 2963 2959 2956 2953 2949 2944 2937 2931 2925 2920 2914 2909 2903 2898
3010 3008 3005 3004 3002 3000 2997 2995 2994 2992 2989 2989 2988 2986 2985 2985 2984 2982 2980 2978 2976 2974 2972 2971 2968 2966 2964 2962 2959 2955 2950 2944 2940 2936 2931 2927 2922 2916 2910 2904 2898 2893 2888
3002 2999 2996 2995 2993 2991 2989 2987 2986 2983 2980 2980 2979 2978 2977 2976 2975 2974 2972 2971 2970 2968 2965 2963 2961 2959 2956 2953 2950 2946 2941 2935 2929 2924 2919 2914 2910 2906 2901 2895 2889 2883 2878
2993 2990 2987 2985 2984 2981 2979 2977 2975 2973 2971 2971 2970 2969 2968 2968 2967 2966 2964 2963 2962 2960 2958 2956 2954 2952 2949 2946 2942 2937 2932 2927 2922 2917 2912 2907 2901 2896 2891 2886 2881 2875 2870
2981 2978 2976 2974 2974 2970 2969 2967 2965 2962 2962 2961 2960 2959 2959 2959 2958 2957 2956 2955 2954 2953 2951 2949 2947 2945 2942 2937 2933 2928 2923 2919 2915 2910 2905 2900 2895 2891 2886 2881 2874 2869 2864
2969 2966 2965 2962 2962 2959 2959 2958 2955 2952 2952 2951 2950 2950 2950 2949 2949 2949 2949 2948 2946 2945 2943 2941 2940 2937 2934 2929 2925 2920 2915 2911 2906 2902 2898 2893 2887 2882 2876 2872 2868 2862 2857